Theta_e
308 310 309 310 311 311 311 311 310 309 309 308 306 305 304 304 304 299 293 291 291 291 291 291 291 292 291 291 291 292 291 291 291 290 290 290 290 290 290 289 289 288
307 308 308 308 309 309 310 311 310 309 308 307 305 303 303 303 300 294 290 291 291 291 291 291 291 291 291 291 291 291 291 291 290 290 290 290 290 289 289 289 288 288
307 307 307 307 308 309 309 308 307 308 307 305 302 302 303 301 295 290 290 290 290 290 290 290 291 291 291 291 291 291 291 290 290 289 289 289 289 289 289 288 288 287
306 306 307 307 308 308 308 306 305 304 303 301 300 301 301 297 291 289 290 290 290 290 290 290 290 290 291 291 290 290 290 290 290 289 289 289 289 289 288 288 287 287
306 307 306 306 306 306 306 305 304 301 299 298 298 299 296 292 289 290 289 289 289 289 289 289 290 290 290 290 290 290 290 289 289 289 289 289 288 288 288 287 287 286
306 306 306 306 306 305 304 303 303 300 296 296 296 294 292 290 289 289 289 289 289 289 289 289 289 289 290 290 290 289 289 289 289 288 289 288 288 288 287 287 286 286
304 304 304 305 305 303 302 301 300 296 293 293 292 290 290 289 289 289 289 289 289 289 289 289 289 289 289 289 289 289 289 289 288 288 288 288 288 287 287 286 286 286
302 302 302 302 302 301 300 299 297 293 290 290 290 289 289 289 289 289 288 288 288 288 288 288 289 289 288 289 288 288 288 288 288 288 288 287 287 287 287 286 286 286
300 300 299 299 298 298 297 296 294 290 289 289 289 289 289 289 288 288 288 288 288 288 288 288 288 288 288 288 288 288 288 288 288 288 288 287 287 287 287 286 286 286
298 297 297 296 296 296 296 294 292 289 287 288 288 288 288 288 288 288 288 287 287 287 287 287 287 288 288 288 288 288 288 288 288 287 287 287 287 287 287 287 287 286
296 296 295 295 294 294 294 293 290 288 287 287 287 288 287 287 287 287 287 287 287 287 287 287 287 288 288 288 288 287 287 288 288 287 287 287 287 287 287 287 287 286
294 294 294 294 293 293 293 292 290 288 287 287 287 287 287 287 287 287 286 287 287 287 287 287 287 287 287 288 287 287 287 287 287 287 287 287 287 287 287 287 287 286
294 293 294 294 293 293 292 291 289 287 286 286 287 287 287 287 286 286 286 286 286 286 286 286 287 287 287 288 287 287 287 287 287 287 287 287 287 287 287 287 286 286
293 293 293 294 293 292 291 290 289 287 286 286 286 286 286 287 287 286 286 286 286 286 286 286 286 287 287 287 287 287 287 287 287 287 287 287 287 287 286 286 286 286
292 292 292 292 291 290 289 288 287 286 286 286 286 286 286 286 286 286 286 285 285 285 285 286 286 287 287 287 287 287 287 287 287 287 287 287 287 287 286 286 286 286
291 292 291 290 289 288 287 286 286 286 285 285 286 286 286 286 285 285 285 285 285 285 285 285 286 286 287 287 287 287 287 287 287 287 287 287 287 286 286 286 286 286
291 291 290 289 287 286 286 286 286 285 285 285 285 285 285 285 284 285 285 285 285 285 285 285 286 286 287 287 287 287 287 287 287 287 287 287 286 286 286 286 286 286
290 290 289 288 287 286 286 286 285 285 285 285 285 285 284 284 284 284 284 284 284 284 285 285 285 286 287 287 287 287 287 287 287 287 287 287 286 286 286 286 286 286
290 289 289 288 287 287 286 286 285 285 285 285 285 284 284 284 284 284 284 284 284 284 285 285 285 286 287 287 287 287 287 287 287 287 287 287 287 286 286 286 286 286
289 289 288 288 288 287 287 286 285 285 285 284 284 284 284 284 284 284 284 284 284 284 284 284 285 286 287 287 287 287 287 287 287 287 287 287 286 286 286 286 286 286
289 289 288 288 288 287 286 286 285 285 284 284 284 284 284 284 284 284 284 284 284 284 284 284 285 286 286 287 287 287 287 287 286 287 286 286 286 286 286 286 286 285
289 288 288 288 287 286 286 285 285 285 284 284 284 283 283 284 284 284 284 284 284 284 284 284 285 285 286 286 287 287 286 286 286 286 286 286 286 286 286 285 285 285
288 288 288 287 287 286 286 285 285 284 284 284 284 283 283 283 283 284 284 285 284 284 284 284 285 286 286 286 286 286 286 285 285 285 285 285 285 286 285 285 285 285
288 288 288 287 286 286 286 285 285 285 284 284 284 283 283 283 283 284 285 285 284 284 284 285 286 286 285 285 285 285 285 284 284 284 284 284 285 285 285 285 285 285
288 288 288 287 287 286 286 286 285 285 285 284 284 284 285 285 286 286 285 285 284 283 284 285 285 285 284 284 284 284 284 283 283 283 283 283 284 284 284 284 284 284
288 288 288 288 287 287 286 286 286 285 285 285 286 286 287 287 287 287 286 285 284 284 284 284 284 284 283 283 282 282 283 282 282 282 282 283 283 283 283 283 283 284
Wind_Speed
31 32 32 33 33 32 30 29 30 31 32 33 34 35 36 36 36 37 37 36 34 32 31 30 29 27 26 26 25 24 23 23 22 21 19 17 15 14 12 10 9 7
32 33 34 34 33 32 30 30 32 33 34 34 35 36 37 37 38 39 38 37 35 33 31 30 29 27 27 26 25 24 24 23 22 21 19 17 15 13 12 10 9 8
33 34 34 33 31 30 30 31 34 35 35 35 37 38 39 39 40 40 38 37 35 34 32 31 29 28 27 26 25 24 24 23 23 21 19 17 15 14 12 10 9 9
35 35 34 32 30 29 30 33 35 36 37 38 39 40 41 41 41 41 39 37 35 34 33 31 30 29 28 27 26 25 24 23 22 21 20 18 16 14 13 11 11 10
36 35 33 31 30 30 32 35 37 38 39 41 42 42 42 43 43 41 40 38 37 35 34 32 31 30 28 27 27 26 25 24 22 21 19 18 17 15 13 12 11 10
36 35 33 31 31 33 35 36 38 40 42 43 43 44 44 44 43 42 41 39 38 36 35 34 32 31 29 28 27 26 25 24 23 21 19 18 17 16 14 13 12 10
36 36 34 33 33 35 36 37 39 42 43 44 44 45 45 45 44 42 41 40 39 37 36 34 33 32 30 29 28 27 25 24 23 22 20 18 17 17 16 14 12 11
36 36 35 35 36 36 36 38 41 43 44 45 45 45 46 45 44 43 41 40 38 37 36 34 33 32 31 30 29 28 26 25 23 22 21 19 18 17 16 15 13 12
36 36 36 36 36 36 37 38 41 43 44 45 46 46 45 44 43 42 41 39 38 36 35 34 33 31 30 30 29 28 27 26 24 22 21 20 20 18 16 15 14 14
36 36 36 36 36 37 37 39 41 43 43 44 45 45 44 43 42 41 40 39 38 36 35 34 32 31 30 29 29 28 27 26 24 22 21 20 19 18 17 16 15 15
36 36 36 37 37 37 37 39 41 43 42 42 43 43 43 42 41 40 39 38 37 36 35 33 32 31 30 29 28 27 26 25 23 22 21 20 19 17 16 16 16 15
37 37 37 37 37 37 38 40 42 43 42 42 42 42 41 41 40 39 38 37 37 35 34 33 31 30 30 29 28 27 26 24 22 22 21 20 19 18 17 16 16 15
38 38 38 38 38 38 39 40 42 43 43 42 41 41 41 40 40 39 38 37 36 34 33 32 31 30 30 29 28 28 26 25 23 22 22 21 20 19 18 17 17 17
38 38 38 38 38 39 39 41 43 43 42 41 41 40 41 40 40 39 38 36 35 34 33 32 31 31 30 30 29 28 27 25 24 23 23 22 21 20 19 19 19 19
37 37 38 38 38 38 39 40 41 41 40 39 39 40 40 40 39 39 38 36 35 34 33 33 32 31 31 31 30 29 28 26 25 24 23 23 22 21 21 22 22 22
35 36 37 37 37 37 37 38 38 38 38 38 38 39 39 39 38 37 36 36 35 35 34 33 33 32 32 31 30 29 28 27 26 25 24 23 23 23 24 24 24 24
33 35 35 35 35 34 34 35 36 37 37 37 37 38 38 37 36 36 35 35 36 35 34 34 33 33 32 31 31 30 29 27 27 27 26 25 25 26 27 27 26 25
32 33 33 33 33 33 33 34 35 35 36 36 37 37 37 36 35 36 35 35 35 34 34 34 34 33 32 31 31 31 30 29 29 29 28 28 28 29 29 29 28 27
31 31 32 32 33 33 33 33 34 34 35 36 37 36 36 35 35 36 35 35 35 34 35 35 34 33 31 31 31 31 31 32 32 31 30 30 31 31 31 31 30 29
30 31 32 32 33 33 33 33 34 34 35 36 36 36 36 36 35 35 34 34 35 35 35 34 33 32 30 31 32 33 34 34 34 33 33 33 33 34 33 32 32 31
31 32 32 32 32 33 33 33 34 34 35 35 35 35 35 35 34 34 34 34 34 35 34 34 33 32 31 32 35 35 36 36 36 36 35 36 36 36 35 35 34 33
32 31 31 31 31 31 31 32 33 33 33 33 32 32 32 32 33 34 34 34 34 34 34 35 34 33 33 35 36 37 37 37 37 38 38 38 39 38 38 38 37 36
30 30 29 29 29 30 30 30 30 30 30 30 30 30 30 31 31 31 31 31 33 35 36 36 35 35 36 37 38 38 38 37 38 39 39 40 40 41 41 41 40 39
29 29 28 28 29 29 29 29 28 28 28 28 28 27 27 26 26 26 28 31 34 36 36 36 36 37 38 39 39 39 38 37 37 37 38 40 41 43 43 42 42 41
27 28 28 28 28 28 28 28 27 27 26 25 24 23 22 23 23 25 29 32 34 36 36 36 37 38 39 39 38 36 35 35 35 35 37 39 41 43 44 43 43 43
26 26 26 27 26 26 26 25 24 24 23 22 22 21 22 23 25 27 30 32 34 34 35 36 38 38 38 37 35 33 33 33 33 34 37 39 40 41 42 43 43 43
Wind_Direction
210 209 206 202 200 199 201 205 207 206 207 206 202 196 190 186 184 182 180 179 178 178 176 174 170 166 163 161 162 162 162 163 161 159 159 157 154 152 150 150 150 155
210 208 204 200 200 202 207 214 216 212 209 207 202 195 189 186 184 181 180 180 179 179 177 175 171 168 166 164 165 166 165 166 164 162 162 160 156 154 152 153 158 166
210 207 203 203 205 210 215 217 215 212 209 204 198 193 189 186 183 182 182 182 181 180 178 176 173 171 170 168 169 170 170 170 168 165 165 163 160 159 157 160 169 175
209 207 207 211 215 220 221 216 211 207 204 200 195 192 189 185 184 183 183 183 183 182 180 178 176 174 173 172 172 174 174 174 171 168 168 166 164 165 164 168 178 182
210 211 213 216 219 221 218 213 209 204 200 196 193 190 188 185 185 185 185 185 185 184 182 180 179 178 177 177 177 178 178 176 174 173 172 170 168 168 172 176 182 186
212 214 216 218 221 219 216 212 208 204 198 194 191 189 187 187 187 187 187 187 187 187 185 183 182 181 180 180 181 182 181 179 177 176 176 174 172 173 177 182 185 188
213 213 214 217 219 217 214 211 207 202 197 194 192 190 189 190 190 190 190 190 190 189 187 186 185 184 183 184 184 185 184 183 180 178 178 177 177 178 180 185 189 192
215 214 213 214 214 214 213 210 206 201 197 195 193 192 192 192 192 192 193 193 192 191 190 189 188 187 186 187 187 187 186 185 184 181 180 180 182 183 183 187 193 196
215 215 214 213 212 211 211 209 206 201 198 197 195 194 194 194 194 194 194 194 194 193 192 192 191 190 190 191 191 191 189 187 187 185 185 185 185 186 187 190 196 200
214 214 213 212 211 211 210 209 206 202 200 199 198 197 196 196 196 197 197 196 195 195 195 194 194 193 194 195 196 196 194 191 189 189 190 190 190 190 192 196 200 203
213 213 212 212 211 210 210 208 205 203 202 201 200 199 198 197 198 198 199 199 198 198 198 197 198 197 198 199 199 200 199 196 194 193 193 193 195 196 198 202 205 208
212 211 211 211 211 210 210 208 206 204 203 203 202 201 200 199 200 200 201 201 201 201 201 201 201 201 202 203 203 202 202 200 199 198 197 197 198 199 204 208 212 214
211 210 210 211 211 211 210 208 207 206 205 204 203 202 202 202 202 203 203 203 203 203 204 205 205 205 206 208 207 205 204 203 202 202 202 202 202 205 209 213 217 220
209 209 210 211 211 211 210 208 207 207 206 205 204 203 204 205 205 206 205 205 205 206 207 208 208 208 210 211 210 209 208 207 206 206 207 207 207 211 214 218 222 225
208 209 210 211 210 209 208 207 206 206 206 205 205 205 206 207 208 208 206 206 206 208 209 211 211 212 214 215 214 213 212 212 211 211 212 212 213 216 219 222 225 228
207 208 209 208 208 207 207 206 205 206 206 206 206 207 207 208 208 208 207 208 208 210 211 213 214 216 218 219 219 218 217 217 217 218 217 218 220 223 225 227 229 231
206 207 207 206 206 205 206 206 206 206 207 207 207 207 208 209 209 209 209 209 211 212 214 216 218 219 221 222 223 222 223 223 224 225 223 223 226 229 230 232 233 235
205 204 204 205 205 204 205 206 207 207 207 207 207 208 208 209 209 210 210 211 213 215 217 220 221 221 223 225 226 226 227 229 231 230 229 229 230 232 235 237 238 240
203 202 202 203 204 205 206 206 207 207 207 207 207 207 208 209 210 211 211 212 215 218 221 223 223 224 225 228 231 231 232 233 234 233 234 235 235 236 237 239 241 243
202 202 201 202 203 205 205 206 206 207 208 208 208 207 208 209 210 211 212 214 218 221 223 225 226 227 229 232 235 235 235 235 236 237 238 239 238 239 241 243 245 246
200 200 200 201 203 204 204 204 205 207 207 208 208 208 209 209 210 212 213 216 220 223 225 228 230 231 234 236 238 237 237 237 239 240 240 241 241 241 243 246 248 249
198 198 198 199 200 201 202 203 205 205 206 207 207 208 210 211 212 213 215 219 223 226 228 231 234 236 238 239 240 239 239 238 239 242 242 242 243 244 245 247 249 250
198 196 195 196 197 199 201 203 204 205 206 207 207 207 209 211 213 215 219 224 228 229 231 234 238 241 242 241 241 241 240 238 239 242 243 244 246 247 248 249 250 251
197 196 195 195 198 200 202 202 204 205 206 207 207 208 211 214 218 222 227 230 232 232 233 238 243 245 243 242 242 241 240 239 240 242 244 246 248 250 251 251 252 253
196 196 198 199 201 202 203 204 205 206 207 208 210 214 219 223 228 232 233 234 234 235 237 240 245 245 243 243 242 241 241 241 241 243 245 248 250 252 254 255 255 255
196 197 199 201 203 203 204 205 206 207 208 210 214 220 226 230 233 235 235 236 237 238 241 243 245 245 244 244 244 244 244 244 243 244 246 249 252 254 256 257 258 258